Regional Weather Roundup
Issued by NWS

Home | Current Version | Previous Version | Graphics & Text | Print | Product List | Glossary On
Versions: 1 2 3 4 5 6 7 8 9 10 11 12 13 14 15 16 17 18 19 20 21 22 23 24 25 26 27 28 29 30 31 32 33 34 35 36 37 38 39 40 41 42 43 44 45 46 47 48 49 50
000
ASUS43 KLMK 311710
RWRKY
KENTUCKY REGIONAL WEATHER ROUNDUP
NATIONAL WEATHER SERVICE LOUISVILLE KY
100 PM EDT FRI JUL 31 2015

NOTE "FAIR" INDICATES FEW OR NO CLOUDS BELOW 12,000 FEET
WITH NO SIGNIFICANT WEATHER AND/OR OBSTRUCTIONS TO VISIBILITY.

KYZ001>023-026-027-061>063-070>075-311800-
WESTERN AND SOUTH CENTRAL KENTUCKY

CITY           SKY/WX    TMP DP  RH WIND       PRES   REMARKS
PADUCAH        SUNNY     87  67  51 N8        30.10F HX  90
HENDERSON      SUNNY     84  68  58 CALM      30.08F
OWENSBORO      MOSUNNY   86  67  52 N8        30.09F
HOPKINSVILLE   SUNNY     84  68  58 VRB5      30.09F
BOWLING GREEN  SUNNY     86  62  44 SE6       30.09F
GLASGOW        SUNNY    N/A N/A N/A N5        30.09F
$$

KYZ024-025-028>034-038-045-046-053-311800-
NORTH CENTRAL KENTUCKY

CITY           SKY/WX    TMP DP  RH WIND       PRES   REMARKS
LOUISVILLE/SDF MOSUNNY   88  61  40 W5        30.06F
LOUISVILLE/LOU SUNNY     87  59  38 W6        30.07F
FORT KNOX      MOSUNNY   84  63  49 N3        30.07F
$$

KYZ035>037-039>044-047>052-055>060-089>105-311800-
NORTHEAST KENTUCKY

CITY           SKY/WX    TMP DP  RH WIND       PRES   REMARKS
LEXINGTON      SUNNY     84  61  45 VRB3      30.08F
COVINGTON      NOT AVBL
FRANKFORT      SUNNY     85  62  46 W7        30.07F
$$

KYZ054-064>069-076>088-106>120-311800-
SOUTHEAST KENTUCKY

CITY           SKY/WX    TMP DP  RH WIND       PRES   REMARKS
JACKSON        MOSUNNY   82  60  47 VRB7      30.10F
LONDON         SUNNY     84  55  36 E7        30.10F
SOMERSET       SUNNY     81  54  39 CALM      30.10F
MIDDLESBORO    SUNNY     82  60  46 NE8       30.10S
MONTICELLO     SUNNY     84  61  45 NE6       30.13F
$$



USA.gov is the U.S. government's official web portal to all federal, state and local government web resources and services.